TIME,DELAY(SENSOR),PRES,T(CTD),SAL,OXYGEN,RAWTEMP,T(OPTODE),TCPHASE,TURBIDITY,TURBIDITY_GAIN,FLUOR,BETA,CDOM,CSC,CHECK
1350820059,8891,965.6199951171875000,6.7880001068115230,35.0754013061523440,222.9216003417968800,665.5540161132812000,6.7672901153564450,37.2482490539550800,15,3,51,92,64,15680,59003
1350820160,8892,954.8099975585938000,6.9324998855590820,35.0792999267578100,218.5140075683593800,661.2766723632812000,6.9089450836181640,37.4115791320800800,15,3,51,92,63,15682,63083
1350820261,8892,943.8800048828125000,7.0553002357482910,35.0843009948730500,214.3816070556640600,657.2739868164062000,7.0413069725036620,37.5690383911132800,15,3,50,92,64,15680,38047
1350820362,8893,933.1300048828125000,7.2362999916076660,35.0895996093750000,209.7519989013672000,651.9285278320312000,7.2177929878234860,37.7357597351074200,16,3,50,92,64,15682,35377
1350820475,8893,921.3699951171875000,7.5085000991821290,35.0993003845214840,202.0726928710937500,643.7501831054688000,7.4871649742126465,38.0400009155273440,15,3,50,92,64,15680,49271
1350820589,8892,909.9899902343750000,7.6381998062133790,35.1034011840820300,197.4705963134765600,639.2808837890625000,7.6340579986572270,38.2380714416503900,15,3,50,94,63,15678,40007
1350820705,8893,899.1799926757812000,7.8545999526977540,35.1076011657714840,192.5314025878906200,633.3439941406250000,7.8288421630859375,38.4387702941894500,16,3,50,94,64,15678,62212
1350820832,8894,888.2399902343750000,7.9762001037597660,35.1130981445312500,187.8045959472656200,629.0277099609375000,7.9702110290527340,38.6632499694824200,16,3,50,94,65,15675,57823
1350820971,8893,877.3499755859375000,8.1169004440307620,35.1169013977050800,181.8784942626953000,624.9600830078125000,8.1032514572143550,38.9789390563964840,16,3,51,94,64,15676,44896
1350821109,8893,866.2700195312500000,8.3418998718261720,35.1295013427734400,176.3724060058593800,616.9030151367188000,8.3662567138671880,39.2090187072753900,16,3,52,90,64,15682,17658
1350821237,8893,855.1599731445312000,8.8443002700805660,35.1697006225585940,171.4712982177734400,602.2852172851562000,8.8416843414306640,39.2928085327148440,16,3,50,90,62,15686,33594
1350821365,8893,844.2000122070312000,9.0019998550415040,35.1786003112793000,167.9349060058593800,597.3076782226562000,9.0030746459960940,39.4582481384277340,15,3,50,91,64,15682,41837
1350821493,8893,832.9899902343750000,9.2448997497558600,35.1939010620117200,164.0610046386718800,589.3477783203125000,9.2606544494628900,39.6022605895996100,15,3,50,92,63,15678,28625
1350821609,8892,821.9600219726562000,9.4568996429443360,35.2141990661621100,162.2966003417968800,583.6608886718750000,9.4443044662475590,39.6352691650390600,16,3,50,90,64,15680,64832
1350821724,8892,810.5599975585938000,9.5899000167846680,35.2266006469726560,161.8278045654297000,579.4531860351562000,9.5799827575683600,39.5988807678222660,16,3,52,92,62,15679,48907
1350821846,8891,798.7100219726562000,9.8854999542236330,35.2597999572753900,161.4987030029297000,570.2395019531250000,9.8764953613281250,39.4660110473632800,15,3,51,89,62,15682,9394
1350821980,8893,788.0499877929688000,10.1906003952026370,35.2935981750488300,161.1293945312500000,560.5625000000000000,10.1870698928833000,39.3310203552246100,15,3,50,88,63,15679,3687
1350822137,8892,775.5999755859375000,10.5631999969482420,35.3316001892089840,159.2516021728515600,548.6879882812500000,10.5670299530029300,39.2727317810058600,15,3,50,89,62,15680,24257
1350822265,8893,763.9199829101562000,10.7964000701904300,35.3604011535644500,158.9747009277343800,541.4783935546875000,10.7971200942993160,39.1741600036621100,16,3,50,88,62,15682,32842
1350822381,8892,753.7999877929688000,11.1728000640869140,35.4127998352050800,161.0585937500000000,528.9448242187500000,11.1960897445678710,38.8094711303710940,16,3,50,86,62,15686,11203
1350822520,8893,742.1199951171875000,11.5782003402709960,35.4656982421875000,165.6436004638672000,517.3461303710938000,11.5641498565673830,38.2788887023925800,15,3,50,85,60,15687,14138
1350822648,8892,731.2800292968750000,11.8361997604370120,35.5060997009277340,167.6835021972656200,508.6883850097656000,11.8381996154785160,37.9898681640625000,15,3,52,84,62,15689,18774
1350822813,8892,717.0700073242188000,12.1454000473022460,35.5523986816406250,171.1683044433593800,498.8334960937500000,12.1494503021240230,37.5815696716308600,16,3,50,84,61,15692,32979
1350822928,8893,706.3099975585938000,12.3457002639770500,35.5806007385253900,173.1360015869140600,492.4411926269531000,12.3509597778320310,37.3406105041503900,16,3,50,84,60,15690,33890
1350823043,8893,695.3499755859375000,12.5290002822875980,35.6082992553710940,175.6305999755859400,486.6939086914062500,12.5318803787231450,37.0749702453613300,15,3,50,85,58,15692,55344
1350823158,8893,684.4600219726562000,12.7119998931884770,35.6383018493652340,178.9281005859375000,480.8234863281250000,12.7164402008056640,36.7575798034668000,16,3,50,82,60,15693,28839
1350823285,8891,673.0599975585938000,13.1455001831054690,35.6986007690429700,183.4638061523437500,467.2549133300781000,13.1421403884887700,36.2424201965332000,15,3,50,82,60,15693,35821
1350823412,8893,662.3699951171875000,13.2265996932983400,35.7112998962402340,183.4028015136718800,464.3200073242187500,13.2340602874755860,36.2008781433105500,16,3,50,84,60,15692,54945
1350823551,8892,651.0900268554688000,13.4215002059936520,35.7400016784668000,182.7209930419922000,457.9852905273437500,13.4322700500488280,36.1470413208007800,16,3,50,82,58,15693,8097
1350823710,8892,637.1400146484375000,13.7840003967285160,35.7994995117187500,191.6819000244140600,446.5038146972656000,13.7908897399902340,35.3961296081543000,16,3,50,82,59,15692,55494
1350823826,8894,625.4600219726562000,13.9350996017456050,35.8247985839843750,195.7362060546875000,441.7255859375000000,13.9399003982543950,35.0743598937988300,15,3,50,82,58,15690,4195
1350823941,8894,614.2600097656250000,14.3066997528076170,35.8827018737793000,197.4895935058593800,429.1590881347656000,14.3311796188354500,34.7777099609375000,15,3,50,82,57,15692,1721
1350824056,8894,603.1199951171875000,14.5593996047973630,35.9235000610351560,197.1437988281250000,421.6314086914062500,14.5651502609252930,34.6861000061035160,16,3,50,82,57,15692,35293
1350824171,8893,591.8499755859375000,14.7232999801635740,35.9508018493652340,198.7552032470703000,415.9672851562500000,14.7410001754760740,34.5051498413085940,15,3,50,82,58,15690,53411
1350824286,8892,580.4299926757812000,14.9134998321533200,35.9823989868164060,200.4868011474609400,409.9208068847656000,14.9285402297973630,34.3133316040039060,15,3,50,82,58,15689,48367
1350824399,8894,568.6699829101562000,15.1379995346069340,36.0222015380859400,202.1611938476562500,402.5809020996094000,15.1559495925903320,34.1069297790527340,15,3,50,83,58,15688,36656
1350824528,8893,556.7299804687500000,15.3350000381469730,36.0564002990722660,206.0489044189453000,396.3750915527344000,15.3480300903320310,33.7933692932128900,16,3,48,82,58,15687,43034
1350824668,8894,545.8099975585938000,15.5395002365112300,36.0928993225097660,209.2312011718750000,389.2286987304687500,15.5690002441406250,33.5107002258300800,16,3,50,84,58,15688,62208
1350824802,8893,533.6799926757812000,15.6750001907348630,36.1184005737304700,212.2790069580078000,385.0828857421875000,15.6970901489257810,33.2827186584472660,16,3,48,80,58,15686,18317
1350824906,8892,523.0900268554688000,15.8779001235961910,36.1515007019043000,212.2527008056640600,378.5411071777344000,15.8990602493286130,33.1906089782714840,16,3,49,83,57,15686,53268
1350825021,8892,511.8200073242187500,16.0184001922607420,36.1753997802734400,215.7601013183593800,374.0008850097656000,16.0391292572021500,32.9366111755371100,15,3,50,85,56,15685,37060
1350825136,8894,500.7999877929687500,16.1651000976562500,36.2006988525390600,219.5431976318359400,369.5971069335937500,16.1749095916748050,32.6742897033691400,15,3,50,82,56,15684,53078
1350825251,8893,490.1000061035156000,16.2730998992919920,36.2229995727539060,219.1143951416015600,365.8562927246094000,16.2901897430419920,32.6439514160156250,15,3,48,86,54,15684,50181
1350825378,8893,478.7000122070312500,16.4743003845214840,36.2640991210937500,219.9486999511718800,359.4512939453125000,16.4874496459960940,32.5103111267089840,16,3,49,83,55,15683,53153
1350825505,8892,467.7399902343750000,16.6501007080078120,36.2958984375000000,219.4136047363281200,353.0519104003906000,16.6843891143798830,32.4487686157226560,15,3,50,84,54,15685,54949
1350825632,8894,456.7099914550781000,16.8805999755859380,36.3422012329101560,221.7946014404297000,346.0217895507812500,16.9005794525146500,32.2278785705566400,15,3,48,82,54,15686,31072
1350825771,8894,444.7799987792969000,17.0233993530273440,36.3702011108398440,224.6725006103515600,341.5773925781250000,17.0371799468994140,32.0199813842773440,16,3,48,80,55,15685,24229
1350825898,8893,433.6700134277344000,17.1282005310058600,36.3894004821777340,226.8842926025390600,338.3110046386719000,17.1375293731689450,31.8640708923339840,16,3,50,84,54,15685,21249
1350826025,8893,422.4400024414062500,17.1597995758056640,36.3857002258300800,230.8813934326172000,336.4876098632812500,17.1935291290283200,31.6419105529785160,16,3,47,82,54,15683,14667
1350826152,8892,411.1499938964844000,17.3346004486084000,36.4276008605957000,230.7989959716797000,331.3591003417969000,17.3509902954101560,31.5760993957519530,15,3,48,82,54,15683,39727
1350826279,8893,400.0400085449219000,17.4120006561279300,36.4435997009277340,231.2153015136718800,329.1012878417969000,17.4202995300292970,31.5252494812011720,16,3,49,82,54,15683,25112
1350826344,8892,394.3599853515625000,17.4648990631103500,36.4534988403320300,230.8329010009765600,327.3233032226562500,17.4748592376709000,31.5193405151367200,15,3,50,82,53,15684,50133
1350826412,8893,388.3599853515625000,17.4909992218017580,36.4603004455566400,230.5135040283203000,326.3533020019531000,17.5046195983886720,31.5217609405517580,16,3,48,84,54,15685,49079
1350826477,8891,382.6600036621094000,17.5408992767334000,36.4683990478515600,230.9362030029297000,324.9346923828125000,17.5481491088867200,31.4822196960449220,15,3,50,82,53,15684,41014
1350826545,8893,376.7600097656250000,17.5785999298095700,36.4761009216308600,231.5957031250000000,323.3919982910156000,17.5954704284667970,31.4293708801269530,15,3,50,84,54,15684,43094
1350826622,8893,370.1799926757812500,17.6462993621826170,36.4882011413574200,232.5018005371093800,321.4124145507812500,17.6561908721923830,31.3584804534912100,15,3,48,84,54,15683,43910
1350826690,8893,364.4500122070312500,17.7005004882812500,36.4980010986328100,232.9893035888672000,319.7038879394531000,17.7085800170898440,31.3121109008789060,16,3,49,84,54,15682,12538
1350826767,8893,357.9200134277344000,17.7252006530761720,36.5026016235351560,233.1714935302734400,318.6680908203125000,17.7403507232666000,31.2895393371582030,15,3,48,84,54,15682,20874
1350826835,8892,352.2000122070312500,17.7702999114990230,36.5097999572753900,233.4434051513672000,317.3333129882812500,17.7812690734863280,31.2582893371582030,15,3,48,84,52,15682,29836
1350826900,8893,346.7999877929687500,17.8031997680664060,36.5153007507324200,233.7431030273437500,316.2997131347656000,17.8129596710205080,31.2303504943847660,15,3,48,85,53,15681,61309
1350826980,8892,340.2200012207031000,17.8511009216308600,36.5232009887695300,233.7937011718750000,314.6845092773437500,17.8624706268310550,31.2062091827392580,15,3,48,84,52,15682,54471
1350827045,8892,334.9500122070312500,17.8782997131347660,36.5270996093750000,233.9929046630859400,313.6913146972656000,17.8929195404052730,31.1833095550537100,15,3,48,84,53,15680,25695
1350827125,8893,328.6000061035156000,17.9267005920410160,36.5340995788574200,233.7021942138672000,312.2741088867187500,17.9363498687744140,31.1780300140380860,15,3,50,84,54,15682,16075
1350827202,8892,322.6000061035156000,17.9507007598876950,36.5354995727539060,233.7212982177734400,311.4447937011719000,17.9617691040039060,31.1660709381103500,16,3,49,84,53,15680,13406
1350827301,8893,314.3699951171875000,18.0104999542236330,36.5453987121582000,233.5881958007812500,309.5152893066406000,18.0209007263183600,31.1465797424316400,16,3,48,82,54,15681,64884
1350827390,8893,305.8699951171875000,18.0562000274658200,36.5497016906738300,233.3818969726562500,307.7568054199219000,18.0747795104980470,31.1331806182861330,15,3,50,84,54,15680,52388
1350827458,8893,299.0000000000000000,18.0876007080078120,36.5522994995117200,233.8215942382812500,306.9179077148437500,18.1004791259765620,31.1007709503173830,16,3,49,84,54,15678,39574
1350827523,8893,292.2900085449219000,18.1331996917724600,36.5587005615234400,233.5834045410156200,305.2301025390625000,18.1521797180175780,31.0897197723388670,15,3,50,84,54,15680,5583
1350827622,8893,282.4899902343750000,18.1954002380371100,36.5600013732910160,233.5104064941406200,303.3883056640625000,18.2085895538330080,31.0685291290283200,16,3,48,84,54,15680,55243
1350827706,8893,274.9400024414062500,18.2315998077392580,36.5558013916015600,234.2722930908203000,302.3234863281250000,18.2412109375000000,31.0181903839111330,16,3,49,85,52,15680,30799
1350827774,8894,269.1900024414062500,18.2604999542236330,36.5629997253418000,233.8007049560547000,301.2500915527344000,18.2740802764892580,31.0262107849121100,15,3,49,83,52,15682,14480
1350827839,8893,263.7600097656250000,18.3598003387451170,36.5845985412597660,231.7424011230468800,298.2239990234375000,18.3667392730712900,31.0846405029296880,16,3,48,84,52,15678,51345
1350827919,8893,257.0100097656250000,18.3819999694824220,36.5848999023437500,230.4205932617187500,297.2529907226562500,18.3964691162109380,31.1353492736816400,15,3,50,84,54,15679,30283
1350827984,8894,251.6399993896484400,18.3411006927490230,36.5606994628906250,232.1596984863281200,298.5398864746094000,18.3570709228515620,31.0686702728271500,15,3,48,84,52,15682,4394
1350828064,8893,245.2500000000000000,18.2873001098632800,36.5312004089355500,237.7247924804687500,300.5119934082031000,18.2966804504394530,30.8316898345947270,16,3,50,85,52,15680,31620
1350828141,8893,239.0899963378906200,18.3540992736816400,36.5447998046875000,239.0095977783203000,297.9652099609375000,18.3746604919433600,30.7380104064941400,15,3,50,84,53,15680,60327
1350828240,8892,230.6199951171875000,18.4922008514404300,36.5749015808105500,234.1269073486328000,293.9747009277344000,18.4968204498291000,30.9142208099365230,16,3,49,84,52,15682,55407
1350828325,8892,222.3899993896484400,18.4722995758056640,36.5374984741210940,237.0569000244140600,294.4750061035156000,18.4815101623535160,30.7829704284667970,15,3,50,84,52,15680,12965
1350828393,8893,215.6699981689453000,18.5301990509033200,36.5461006164550800,238.3827972412109400,292.3854980468750000,18.5454692840576170,30.6935997009277340,16,3,50,84,52,15679,38904
1350828458,8893,209.3800048828125000,18.5056991577148440,36.5256004333496100,240.2252960205078000,293.2865905761719000,18.5178909301757800,30.6203403472900400,15,3,49,84,50,15678,22033
1350828526,8891,202.8999938964843800,18.5438003540039060,36.5231018066406250,240.7774963378906200,292.1736145019531000,18.5519504547119140,30.5802803039550780,16,3,50,86,52,15675,63518
